[[{"header":{"parameterUnit":"m.s-1","parameterCategory":1,"la1":30.2992,"la2":30.254,"lo1":-89.0895,"lo2":-89.0443,"dy":0.0025,"dx":0.0025,"nx":19,"ny":19,"refTime":"2026-05-16T03:00:00:Z","depth":0,"parameterNumber":2,"parameterNumberName":"U-component_of_WINDS"},"data":[0,0,0,-1.0613,-1.0612,-1.0594,-1.0594,-1.0581,-1.0581,0,0,0,0,0,0,0,0,0,0,0,-1.0624,-1.0624,-1.0613,-1.0612,-1.0594,-1.0594,-1.0581,-1.0581,0,0,0,0,0,0,0,0,0,0,0,-1.0624,-1.0624,-1.0624,-1.0612,-1.0594,-1.0594,-1.0581,-1.0591,0,0,0,0,0,0,0,0,0,0,-1.0607,-1.0622,-1.0624,-1.0624,-1.0612,-1.0594,-1.0594,-1.0591,-1.059,-1.0593,0,-1.0597,0,-1.0589,-1.058,-1.058,0,0,0,-1.0608,-1.0623,-1.0613,-1.0624,-1.0612,-1.0595,-1.0601,-1.0591,-1.0589,-1.0592,-1.0597,-1.0596,-1.0589,-1.058,-1.058,-1.0612,-1.0613,0,0,-1.0609,-1.0623,-1.0614,-1.0613,-1.0617,-1.0602,-1.0601,-1.059,-1.0596,-1.0597,-1.0595,-1.0588,-1.058,-1.058,-1.0612,-1.0612,0,0,0,-1.0615,-1.0624,-1.0614,-1.0614,-1.061,-1.0601,-1.06,-1.0596,-1.0592,-1.0595,-1.0588,-1.058,-1.058,-1.0611,-1.0612,-1.0645,0,0,0,-1.0615,-1.0628,-1.0615,-1.0624,-1.061,-1.0603,-1.0607,-1.0593,-1.0591,-1.0588,-1.058,-1.058,-1.0611,-1.0612,-1.0643,-1.0657,0,0,0,-1.0623,-1.0628,-1.0628,-1.0624,-1.0617,-1.0603,-1.0598,-1.0592,-1.0587,-1.058,-1.058,-1.0611,-1.0612,-1.0641,-1.0655,-1.0671,0,0,0,-1.0635,-1.0656,-1.0629,-1.0649,-1.0618,-1.0623,-1.0597,-1.0601,-1.0599,-1.058,-1.0611,-1.0612,-1.0641,-1.0653,-1.0669,-1.0688,-1.0696,0,0,-1.067,-1.0661,-1.0672,-1.0647,-1.0661,-1.0625,-1.0644,-1.0628,-1.0613,-1.0613,-1.0614,-1.0643,-1.0655,-1.0671,-1.074,-1.0747,0,0,0,-1.0688,-1.0696,-1.0697,-1.0696,-1.0685,-1.0677,-1.0657,-1.0651,-1.0651,-1.0616,-1.0653,-1.0659,-1.0668,-1.0676,-1.0682,-1.0689,-1.0616,-1.0616,-1.0616,-1.0757,-1.0739,-1.0757,-1.0736,-1.0736,-1.0716,-1.0714,-1.0703,-1.0683,-1.0692,-1.0692,-1.0737,-1.0747,-1.0751,-1.0759,-1.07,-1.07,-1.07,-1.07,-1.0807,-1.0816,-1.0791,-1.0799,-1.078,-1.0786,-1.0768,-1.0754,-1.0758,-1.0735,-1.0742,-1.0719,-1.076,-1.0765,-1.0703,-1.0702,-1.0702,-1.0702,-1.0702,-1.0851,-1.0853,-1.0846,-1.0844,-1.0845,-1.0823,-1.0828,-1.081,-1.0792,-1.0799,-1.0798,-1.0797,-1.0795,-1.08,-1.08,-1.08,-1.08,-1.08,-1.0801,-1.09,-1.0891,-1.0898,-1.0889,-1.0887,-1.0882,-1.0863,-1.086,-1.0853,-1.0839,-1.0839,-1.0819,-1.0767,-1.0755,-1.0803,-1.0802,-1.0802,-1.0802,-1.0802,-1.0958,-1.0943,-1.0953,-1.0951,-1.094,-1.0942,-1.0919,-1.0916,-1.0911,-1.0914,-1.0893,-1.0857,-1.0847,-1.0842,-1.0831,-1.0897,-1.0897,-1.0897,-1.0897,-1.0996,-1.0989,-1.0996,-1.0995,-1.0991,-1.0972,-1.0985,-1.097,-1.0953,-1.0949,-1.0937,-1.0921,-1.0917,-1.0909,-1.0902,-1.0893,-1.0972,-1.0972,-1.0972,-1.1032,-1.1024,-1.1038,-1.1022,-1.1012,-1.1004,-1.1016,-1.1015,-1.0992,-1.0975,-1.0946,-1.0942,-1.0917,-1.091,-1.0892,-1.0883,-1.0864,0,0]},{"header":{"parameterUnit":"m.s-1","parameterCategory":1,"la1":30.2992,"la2":30.254,"lo1":-89.0895,"lo2":-89.0443,"dy":0.0025,"dx":0.0025,"nx":19,"ny":19,"refTime":"2026-05-16T03:00:00:Z","depth":0,"parameterNumber":3,"parameterNumberName":"V-component_of_WINDS"},"data":[0,0,0,4.942,4.9422,4.9489,4.9489,4.9592,4.9593,0,0,0,0,0,0,0,0,0,0,0,4.9414,4.9415,4.942,4.9422,4.9489,4.9489,4.9592,4.9593,0,0,0,0,0,0,0,0,0,0,0,4.9413,4.9415,4.9416,4.9423,4.9489,4.9489,4.9592,4.9535,0,0,0,0,0,0,0,0,0,0,4.9467,4.9475,4.9414,4.9416,4.9423,4.9488,4.9489,4.9531,4.9538,4.9571,0,4.9605,0,4.9601,4.9602,4.9602,0,0,0,4.9412,4.9469,4.9475,4.9417,4.9424,4.9488,4.9456,4.9535,4.9543,4.958,4.9606,4.9609,4.9603,4.9602,4.9603,4.9826,4.9828,0,0,4.9408,4.9433,4.947,4.948,4.9474,4.9454,4.9458,4.9539,4.9569,4.9606,4.9611,4.9604,4.9603,4.9604,4.9825,4.9826,0,0,0,4.9405,4.9431,4.9434,4.9477,4.9487,4.9456,4.9461,4.9566,4.9565,4.9612,4.9606,4.9604,4.9605,4.9823,4.9825,4.9923,0,0,0,4.9402,4.9429,4.9433,4.9449,4.9486,4.9528,4.9486,4.9559,4.9567,4.9605,4.9604,4.9607,4.9821,4.9824,4.9916,4.9964,0,0,0,4.9405,4.9429,4.9443,4.945,4.948,4.9526,4.9529,4.956,4.9564,4.9602,4.9607,4.982,4.9824,4.9911,4.9955,5.0028,0,0,0,4.9415,4.9531,4.9445,4.9571,4.9479,4.9587,4.9528,4.9607,4.9652,4.9605,4.9822,4.9825,4.9909,4.9949,5.0022,5.0093,5.0125,0,0,4.9574,4.9551,4.9622,4.9548,4.9677,4.9575,4.9717,4.9735,4.9716,4.979,4.9795,4.9919,4.9955,5.0027,5.0301,5.0327,0,0,0,4.9681,4.9733,4.9761,4.9805,4.9821,4.9838,4.9831,4.9837,4.9898,4.976,4.9965,4.9986,5.0027,5.0059,5.0081,5.0114,4.9842,4.9841,4.9841,4.9941,4.991,5.0025,5.0002,5.0044,5.0035,5.0065,5.0071,5.0029,5.0078,5.0099,5.0269,5.0308,5.0324,5.0359,5.0135,5.0136,5.0136,5.0136,5.0169,5.0236,5.0174,5.0264,5.0229,5.0304,5.0298,5.0265,5.0327,5.0251,5.0286,5.0204,5.0354,5.0382,5.0143,5.0142,5.0141,5.0141,5.014,5.0335,5.0361,5.0366,5.0423,5.047,5.0441,5.0504,5.0471,5.044,5.0475,5.0491,5.049,5.0481,5.0485,5.0486,5.0486,5.0487,5.0487,5.0488,5.0504,5.0506,5.0563,5.0587,5.0609,5.0633,5.0622,5.0642,5.0655,5.0626,5.0626,5.0576,5.0375,5.0324,5.0497,5.0495,5.0494,5.0493,5.0492,5.0744,5.0683,5.0771,5.0793,5.0816,5.0863,5.082,5.0862,5.0874,5.0905,5.0848,5.0705,5.0678,5.0661,5.0618,5.0856,5.0856,5.0856,5.0856,5.0882,5.0865,5.0945,5.098,5.1012,5.098,5.1077,5.1069,5.1051,5.1056,5.1017,5.0958,5.0941,5.0924,5.09,5.086,5.1154,5.1155,5.1155,5.1026,5.101,5.11,5.1081,5.1096,5.1109,5.1198,5.124,5.1208,5.1166,5.1058,5.1045,5.095,5.0921,5.0876,5.084,5.0765,0,0]}]]